Location: *
(45.1000°N, 10.5000°E)
Time: 18:08:32
(UTC+00:00)

Daily predictions for brighter satellites

Satellite Brightness Start Highest point End
(mag) Time Altitude Azimuth Time Altitude Azimuth Time Altitude Azimuth
USA 186 2.9 18:12:17 10° SE 18:15:12 27° ENE 18:18:04 10° NNE
Cosmos 1269 Rocket 4.4 18:11:54 10° SSW 18:17:10 72° WNW 18:22:30 10° NNE
STARLINK-1104 3.7 18:14:04 10° NW 18:18:13 75° NNE 18:22:22 10° ESE
STARLINK-1144 3.6 18:19:02 10° NW 18:23:12 80° NNE 18:27:20 10° ESE
ARGOS Delta rocket 4.1 18:21:04 10° SSE 18:26:14 70° ENE 18:31:39 10° N
Cosmos 2251 Rocket 3.9 18:22:42 10° S 18:27:42 42° ESE 18:32:45 10° NE
STARLINK-1103 3.6 18:24:00 10° WNW 18:28:10 86° NNE 18:32:19 10° ESE
Cosmos 292 Rocket 4.1 18:23:44 10° N 18:28:23 46° ENE 18:33:00 10° SE
Cosmos 1455 Rocket 4.0 18:26:33 10° SSW 18:30:48 54° WNW 18:35:07 10° N
Cosmos 1953 3.0 18:27:15 10° SSE 18:30:49 33° E 18:34:25 10° NNE
YAOGAN 1 4.3 18:27:10 10° SSW 18:31:09 36° W 18:35:11 10° NNW
MONITOR-E 4.4 18:29:23 10° SE 18:31:50 34° ENE 18:34:17 10° N
STARLINK-1101 3.6 18:29:00 10° WNW 18:33:09 89° SSW 18:37:07 11° SE
Cosmos 2315 Rocket 4.0 18:27:43 10° S 18:34:01 79° E 18:40:25 10° N
Resurs 01 Rocket 3.2 18:34:55 11° ESE 18:37:38 18° ENE 18:40:40 10° NNE
FREGAT/IRIS 2.5 18:35:09 10° SSE 18:37:47 51° ENE 18:40:28 10° N
STARLINK-1102 3.6 18:33:59 10° WNW 18:38:09 83° SW 18:41:55 12° SE
Aureole 3 4.0 18:34:43 10° SSE 18:38:57 54° E 18:44:23 10° NNE
Cosmos 1626 Rocket 3.5 18:34:58 10° N 18:39:23 90° NE 18:43:44 10° S
Cosmos 2369 Rocket 2.4 18:34:05 10° NNW 18:39:42 57° ENE 18:45:15 10° SE
NOSS 3-3 (A) 4.0 18:34:30 10° SSW 18:40:06 52° ESE 18:46:21 10° NE
NOSS 3-3 (C) 4.0 18:34:37 10° SSW 18:40:12 51° ESE 18:46:26 10° NE
Cosmos 1626 3.1 18:38:24 10° NNW 18:42:00 50° W 18:45:35 10° S
STARLINK-1111 3.7 18:38:58 10° WNW 18:43:06 77° SW 18:46:42 13° SE
Cosmos 1943 Rocket 2.1 18:40:12 10° NNW 18:45:46 81° ENE 18:51:21 10° SSE
SL-8 R/B 3.7 18:41:11 10° WNW 18:45:59 79° NNE 18:49:51 16° ESE
Cosmos 1437 3.7 18:43:30 10° NNE 18:46:06 25° ENE 18:47:33 18° ESE
ADEOS Rocket 4.2 18:40:36 10° N 18:46:53 48° WNW 18:52:34 10° SW
Cosmos 1709 Rocket 4.3 18:40:54 10° NNW 18:47:03 72° W 18:53:08 10° S
STARLINK-1073 3.8 18:43:57 10° WNW 18:48:05 71° SW 18:51:29 15° SE
CZ-2C R/B 4.2 18:44:39 10° NNE 18:49:05 38° E 18:53:25 10° SSE
Cosmos 1602 Rocket 3.6 18:44:42 10° N 18:49:10 88° E 18:53:34 10° S
Cosmos 1470 3.2 18:47:26 10° SSW 18:51:17 64° W 18:55:11 10° N
STARLINK-1121 3.9 18:48:56 10° WNW 18:53:02 65° SW 18:56:15 16° SE
Cosmos 1908 4.5 18:52:23 17° ESE 18:53:55 22° E 18:56:57 10° NE
Cosmos 2263 4.4 18:49:31 10° NNW 18:55:02 54° ENE 18:59:31 15° SE
Ariane Rocket 3.3 18:50:16 10° S 18:55:19 72° WSW 19:00:24 10° NNW
IRIDIUM 114 4.3 18:50:14 10° N 18:55:26 63° E 19:00:35 10° SSE
STARLINK-1106 4.0 18:53:54 10° WNW 18:58:00 60° SW 19:01:02 17° SE
Abrixas rocket 2.5 18:56:14 10° W 18:59:09 53° NNW 19:01:18 16° ENE
Aureole 2 Rocket 2.4 18:57:05 10° NNW 19:00:36 85° WSW 19:03:32 13° SSE
Cosmos 1726 Rocket 4.4 18:57:24 13° SE 19:00:39 30° E 19:04:31 10° NNE
Cosmos 2074 Rocket 4.0 18:55:49 10° N 19:02:04 62° ENE 19:08:16 10° SSE
STARLINK-1112 4.1 18:58:55 10° WNW 19:02:59 55° SW 19:05:49 18° SE
Cosmos 1943 3.3 18:57:44 10° S 19:03:12 54° ESE 19:08:44 10° NE
ATLAS 2AS CENTAUR R/B 3.4 18:56:35 10° NNW 19:03:54 44° NE 19:08:47 19° ESE
IRIDIUM 103 4.3 18:59:23 10° N 19:04:38 76° E 19:09:50 10° S
ISS -3.5 19:02:13 10° WNW 19:05:34 63° SSW 19:07:17 25° SE
Cosmos 1825 Rocket 3.7 19:02:34 10° N 19:06:54 53° ENE 19:10:01 18° SSE
USA 234 3.5 19:01:06 10° ENE 19:07:19 44° SE 19:13:30 10° SSW
SL-08 RB Rocket 3.6 19:03:07 10° SSE 19:07:39 78° ENE 19:12:15 10° N
STARLINK-1128 4.2 19:03:55 10° WNW 19:07:56 50° SW 19:10:37 19° SSE
SPOT 3 Rocket 3.5 19:06:50 11° SSE 19:11:46 70° ENE 19:16:57 10° N
STARLINK-1113 4.4 19:08:55 10° WNW 19:12:54 46° SW 19:15:23 20° SSE
STARLINK-1119 4.5 19:13:56 10° WNW 19:17:52 42° SW 19:20:11 21° SSE
SJ-6B 3.3 19:14:08 10° S 19:18:12 65° W 19:22:20 10° NNW
Cosmos 1758 Rocket 3.4 19:14:19 10° N 19:18:41 84° ENE 19:22:13 15° S
IRIDIUM 106 4.5 19:17:40 10° N 19:22:53 76° W 19:28:05 10° S
MOS 1 Rocket 3.7 19:18:29 10° NNE 19:23:43 56° E 19:29:03 10° S
SL-16 R/B 4.3 19:20:02 10° WSW 19:24:53 28° NW 19:29:45 10° N
Cosmos 1953 Rocket 3.7 19:21:29 10° N 19:25:54 57° ENE 19:27:53 31° SE
CZ-2C R/B 3.9 19:23:03 10° S 19:27:50 47° W 19:32:28 10° NNW
Cosmos 1818 3.5 19:23:06 10° SSW 19:28:27 65° ESE 19:33:52 10° NE
Cosmos 1606 Rocket 3.4 19:24:15 10° S 19:28:39 75° E 19:33:07 10° NNE
Terra 4.0 19:28:44 10° ENE 19:28:54 10° NE 19:29:41 10° NE
Cosmos 614 Rocket 4.1 19:27:26 10° S 19:32:28 51° ESE 19:37:31 10° NNE
BREEZE M DEB (TANK) 3.8 19:21:55 10° SW 19:32:42 60° SSE 19:34:30 32° E
Cosmos 921 Rocket 4.2 19:29:14 10° N 19:32:43 25° ENE 19:32:50 25° ENE
Cosmos 407 Rocket 3.7 19:30:03 18° SSE 19:33:32 43° ESE 19:38:22 10° NE
Cosmos 2228 2.9 19:30:27 10° S 19:34:43 81° E 19:39:04 10° N
SL-24 R/B 4.0 19:31:09 10° N 19:35:28 75° WNW 19:39:17 10° SSW
CZ-2C R/B 2.5 19:30:35 10° NNE 19:35:44 66° ESE 19:40:53 10° S
Cosmos 1656 Rocket 3.6 19:31:53 10° NNW 19:37:36 77° ENE 19:40:14 33° SE
Cosmos 2327 Rocket 4.5 19:33:10 10° N 19:39:30 82° E 19:44:16 19° S
ARGOS 4.3 19:35:48 10° SSW 19:40:53 42° W 19:45:59 10° NNW
MetOp-A 4.3 19:38:31 15° S 19:42:55 71° WSW 19:48:17 10° NNW
SL-4 R/B 2.5 19:41:32 10° SW 19:43:45 36° SSW 19:43:45 36° SSW
BREEZE-M DEB (TANK) 3.0 19:40:18 10° WNW 19:45:40 74° NNE 19:45:58 66° ENE
COSMOS 2455 3.7 19:40:52 10° NNW 19:46:26 37° NE 19:48:18 30° E
Cosmos 2341 Rocket 4.3 19:40:22 10° N 19:46:33 49° ENE 19:48:37 37° ESE
Cosmos 1603 4.3 19:41:20 10° SW 19:46:52 58° WNW 19:52:26 10° NNE
Cosmos 1726 3.5 19:43:41 10° SSW 19:47:13 40° WNW 19:50:47 10° N
Cosmos 1340 Rocket 2.9 19:47:46 54° E 19:47:46 54° E 19:51:31 10° NNE
ERS-1 Rocket 4.2 19:47:59 25° ENE 19:48:09 25° ENE 19:52:14 10° N
H-2A R/B 3.9 19:45:21 10° SSW 19:49:51 28° W 19:54:17 10° NW
Resurs 1-3 4.1 19:51:24 25° S 19:53:47 56° W 19:58:08 10° NNW
Cosmos 1328 4.1 19:50:13 10° NNW 19:54:12 65° W 19:55:27 40° SSW
Cosmos 1703 4.2 20:01:50 10° NNW 20:05:37 44° W 20:06:51 33° SW
Cosmos 2218 Rocket 4.4 20:01:25 10° N 20:07:17 43° ENE 20:07:52 42° E
Cosmos 1461 3.5 20:03:32 10° NNW 20:07:55 49° NE 20:07:55 49° NE
Cosmos 1023 Rocket 4.3 20:11:24 65° SSE 20:11:54 71° ESE 20:17:03 10° NNE
Resurs 01 Rocket 2.3 20:12:28 37° SSW 20:13:45 50° W 20:18:04 10° NNW
APEX 4.2 20:11:47 10° NNW 20:18:30 85° WSW 20:19:41 59° SSE
USA 245 4.1 20:18:18 64° SSE 20:19:10 83° ENE 20:25:19 10° NNW
Cosmos 2181 Rocket 4.0 20:18:40 57° ESE 20:19:23 60° E 20:25:29 10° NNE
Cosmos 2058 Rocket 3.5 20:18:20 44° SW 20:19:33 63° W 20:24:03 10° N
Cosmos 1300 4.4 20:23:46 25° NNE 20:23:46 25° NNE 20:25:30 10° NNE
NOSS 3-4 (A) 3.8 20:15:39 10° NW 20:22:42 85° SW 20:24:57 50° SSE
NOSS 3-4 (C) 3.8 20:15:45 10° NW 20:22:48 86° SW 20:25:03 50° SSE
Cosmos 2369 Rocket 4.2 20:18:54 10° NW 20:23:17 23° W 20:27:19 11° SSW
Landsat 7 3.8 20:24:18 70° NE 20:24:18 70° NE 20:28:43 10° N
Cosmos 962 Rocket 4.5 20:21:19 10° N 20:27:29 79° W 20:29:12 50° S
SL-8 Rocket 3.9 20:25:49 10° N 20:32:09 78° E 20:32:55 68° SE
Cosmos 864 Rocket 4.4 20:30:24 10° N 20:36:36 64° E 20:36:39 64° E
SPOT 5 3.8 20:39:20 34° NNE 20:39:20 34° NNE 20:42:01 10° N
SL-24 R/B - RUBIN 2 4.2 20:32:27 10° SW 20:38:00 83° NW 20:44:20 10° NE
Cosmos 2366 rocket 3.8 20:36:20 10° N 20:42:30 74° E 20:42:31 74° E
Spot 2 Rocket 4.0 20:46:23 51° WSW 20:46:41 52° W 20:51:42 10° NNW
USA 234 3.6 20:44:02 10° NE 20:50:29 65° NNW 20:56:56 10° WSW
Cosmos 1140 Rocket 4.1 20:51:23 45° WSW 20:52:29 54° WNW 20:57:34 10° NNE
Cosmos 1959 Rocket 4.4 20:47:07 10° N 20:53:29 90° W 20:53:38 86° S
ATLAS 2AS CENTAUR R/B 3.1 20:47:49 10° NW 20:55:04 53° WSW 20:56:14 48° SSW
Meteor 2-12 Rocket 4.5 20:54:21 10° N 20:59:54 71° NNE 20:59:54 71° NNE
BREEZE M DEB (TANK) 3.7 21:02:08 68° ENE 21:02:08 68° ENE 21:14:19 10° ENE
Terra 3.0 21:07:36 38° N 21:07:36 38° N 21:10:33 10° N
Cosmos 1697 Rocket 4.1 21:02:53 10° N 21:06:58 28° NE 21:06:58 28° NE
CZ-4C R/B 4.2 21:09:35 10° NNW 21:15:28 29° NNE 21:17:32 26° ENE
ERS-1 Rocket 4.2 21:27:58 37° WNW 21:27:58 37° WNW 21:31:31 10° NNW
COSMOS 2455 3.7 21:26:46 10° NW 21:31:27 42° W 21:31:27 42° W
Cosmos 1980 Rocket 3.9 21:30:23 10° N 21:33:52 24° NNE 21:33:52 24° NNE
ATLAS CENTAUR R/B 4.4 21:41:58 10° N 21:42:19 11° N 21:42:19 11° N
ATLAS 5 CENTAUR R/B 4.2 22:02:17 19° N 22:02:17 19° N 22:04:19 10° NNE
Mayak 2.0 22:49:54 10° NNW 22:49:57 10° NNW 22:49:57 10° NNW
SL-16 R/B 4.1 22:57:39 10° NNW 23:00:33 26° N 23:00:33 26° N
CZ-4C R/B 3.5 22:57:45 10° NW 23:02:42 50° NNW 23:02:42 50° NNW
Cosmos 2360 Rocket 4.3 23:07:28 10° N 23:10:45 21° NNE 23:10:45 21° NNE
Cosmos 2322 Rocket 4.1 23:09:00 10° NNW 23:11:48 26° N 23:11:48 26° N
Cosmos 1980 Rocket 4.3 23:13:55 10° NNW 23:15:38 20° NW 23:15:38 20° NW
Cosmos 2344 4.4 23:29:34 10° NW 23:38:51 71° WSW 23:38:51 71° WSW
Cosmos 2082 Rocket 4.1 23:44:35 26° N 23:44:35 26° N 23:47:27 10° NNE
